Погода в Сызрани

Погода в Сызрани : погода сейчас, прогноз погоды и архив. Всё, что Вы хотите узнать о погоде в Сызрани!

Хотите узнать прогноз погоды в Сызрани? Тогда Вам сюда: Погода в Сызрани

Поиск расширенной информации на нашем сайте:

Полезная информация: Актуальная информация горящие туры в Турцию, цены на путевки в Турцию здесь. - Poisk-toura.com

Другие новости

Новости СМИ2

Главная страница сайта

Новости сайта

03.07.2017

Напоминаем, что на нашем специализированном сайте Метеоцентр.Азия вы можете получить высокодетализированные автоматические прогнозы погоды по пунктам России, СНГ и мира в авиационном формате (включающие направление и скорость ветра, видимость, явления погоды, количество и форму облачности, нижнюю и верхнюю границу облачности).

Рекомендуем: Оплата тура онлайн купить тур онлайн. - Guru-tour.ru

Погода в Сызрани - сегодня

Время (UTC), дата Ветер
(°,м/с) 
Видим.   Явления Облачность Т
(°С)
Тd
(°С)
f(%) Тe
(°С)
Pmin
(гПа)
dP
(гПа)
Po
(мм)
O2
(г/м3)
Тmin Tmax R s Состояние
почвы
09 18.07.17 260 (З) 20000 м    9/6 600 м кучево-дожд., средняя, верхняя 
[Cb calv|Ac trans|Ci fib]
+26 +16.5 56 +37  1013.3  -0.2  751  273           
12 18.07.17 280 (З) 20000 м    6/6 600 м кучево-дожд. 
[Cb calv]
+25.7 +15.9 55 +36  1013.8  0.5  751  273           
15 18.07.17 310 (СЗ) 20000 м    3/3 1000 м кучево-дожд. 
[Cb calv]
+24.7 +17.3 63 +38  1014  0.2  752  274    +26.6       
18 18.07.17 340 (С) 20000 м    3/0 средняя, верхняя 
[Ac trans|Ci fib]
+17.9 +14.5 81 +27  1015.9  1.6  753  282           
21 18.07.17 300 (СЗ) 20000 м    ясно 
+15.3 +13.9 91 +24  1016.5  0.4  753  285           
00 19.07.17 330 (СЗ) 20000 м    ясно 
+13.7 +12.7 94 +20  1016.9  0.4  753  287           
03 19.07.17 010 (С) 20000 м    ясно 
+17.3 +14.7 85 +27  1016.9  -0.1  753  282  +13.3        сухая 
06 19.07.17 030 (СВ) 20000 м    5/5 1000 м 
[Cu hum]
+21.8 +13.7 60 +28  1016.6  0.1  753  278           
09 19.07.17 050 (СВ) 20000 м    5/5 1000 м 
[Cu hum]
+23.9 +12.7 49 +29  1016.3  -0.2  753  277           
12 19.07.17 060 (СВ) 20000 м    4/4 1000 м 
[Sc diur, vesp]
+24.9 +14.1 51 +32  1015.5  -0.7  753  275           
15 19.07.17 070 (В) 20000 м    1/1 1000 м 
[Sc]
+23.9 +14.1 54 +31  1015.2  -0.4  752  276    +25       
18 19.07.17 340 (С) 20000 м    ясно 
+15.8 +14.5 92 +25  1015.9  0.4  753  284           
21 19.07.17 330 (СЗ) 20000 м    ясно 
+13.2 +11.5 89 +17  1016  753  287           
00 20.07.17 тихо ()   20000 м    ясно 
+11.8 +11.3 97 +15  1015.6  -0.5  752  288           
03 20.07.17 030 (СВ) 20000 м    ясно 
+16.7 +13.4 81 +24  1015.5  0.1  752  283  +10.9        сухая 
06 20.07.17 110 (В) 20000 м    6/3 1000 м кучево-дожд., средняя, верхняя 
[Cb calv|Ac trans|Ci fib]
+23.6 +14.8 58 +32  1015.5  0.2  753  276           
09 20.07.17 140 (ЮВ) 20000 м    6/4 1000 м кучево-дожд., средняя, верхняя 
[Cb calv|Ac trans|Ci fib]
+24.6 +14.7 54 +33  1014.4  -1  752  275           
12 20.07.17 070 (В) 20000 м    6/4 1000 м кучево-дожд., средняя, верхняя 
[Cb calv|Ac trans|Ci fib]
+25.4 +15.8 55 +35  1013.1  -1.2  751  274           
15 20.07.17 110 (В) 20000 м    9/9 960 м кучево-дожд. 
[Cb calv]
+24.3 +16.8 63 +36  1012.6  -0.6  751  274    +25.5       
18 20.07.17 020 (С) 20000 м    8/8 930 м кучево-дожд. 
[Cb calv]
+18.9 +16.2 84 +31  1013.1  0.3  751  279           
21 20.07.17 030 (СВ) 21000 м    3/0 средняя 
[Ac trans]
+16.7 +15.3 91 +27  1012.9  -0.3  751  282           
00 21.07.17 030 (СВ) 20000 м    9/9 870 м кучево-дожд. 
[Cb calv]
+17.9 +15.6 86 +29  1012.3  -0.6  750  280           
03 21.07.17 050 (СВ) 20000 м  в посл. час гроза{ливн. осадки}  9/9 800 м кучево-дожд. 
[Cb calv]
+18.2 +17.9 98 +34  1012.9  0.6  751  279  +16.1      влажная 
06 21.07.17 050 (СВ) 20000 м  {гроза, ливн. осадки}  9/8 900 м кучево-дожд., средняя 
[Cb calv|Ac trans]
+20.3 +17.7 85 +34  1013.2  0.4  751  278           
09 21.07.17 130 (ЮВ) 20000 м    8/3 1000 м кучево-дожд., средняя, верхняя 
[Cb calv|Ac trans|Ci fib]
+24.6 +16.3 60 +36  1012.4  -0.6  750  274           
Время (UTC), дата Ветер
(°,м/с) 
Видим.   Явления Облачность Т
(°С)
Тd
(°С)
f(%) Тe
(°С)
Pmin
(гПа)
dP
(гПа)
Po
(мм)
O2
(г/м3)
Тmin Tmax R s Состояние
почвы

Для получения пояснительной информации подведите курсор к названию столбца.

ПОГОДА в Сызрани - архив

Всё, что Вы хотите узнать о погоде в Сызрани - удобно и подробно!

Выберите нужную дату (начиная с 1 января 2015* года) и нажмите кнопку "Найти".
Будут отображены архивные сводки погоды по пункту Сызрань, начиная с указанной даты.


Отображать данные в формате CSV (для использования в таблицах Excel)


Внимание! Наш архив погоды предназначен исключительно для личного некоммерческого использования в познавательных целях. Если Вам необходимы официальные справки о состоянии погоды (для производственных, юридических, коммерческих и т.п. целей), обращайтесь в органы Росгидромета.

*Примечание: данная дата относится к архиву по метеостанциям СССР (Россия, СНГ, Балтия).
Архив по метеостанциям Зарубежной Европы и Азии (кроме Китая) хранится 10 дней, по другим регионам земного шара (Китай, Африка, Америка, Австралия, Океания) - 1 день.

Сызрань - район местоположения метеостанции


Название, широта, долгота, высота метеостанции:
Сызрань 53.2°ш. 48.4°д. 103 м над ур. моря [Российская Федерация]

Дополнительная информация

В oтличие oт бoльшинства пoгoдных сайтoв мы публикуем пoдрoбную метеoинфoрмацию в детальнoм прoфессиoнальнoм фoрмате.

Характеристики температуры и влажнoсти вoздуха измеряются на высoте 2 м в тени вдали oт зданий и деревьев.
Скoрoсть ветра измеряется на высoте 10 м (на урoвне рoста челoвека скoрoсть ветра ниже в 1.5-2 раза). Если метеoстанция нахoдится в гoрoде или в лесу, тo скoрoсть ветра занижена на 2-4 м/с пo сравнению с oткрытым местoм. Скoрoсть ветра над акватoриями крупных рек и oзёр, а также на вершинах хoлмoв на 2-5 м/с выше, чем в oбычных услoвиях.
Атмoсфернoе давление в разных тoчках местнoсти мoжет значительнo oтличаться oт давления на метеoстанции, в зависимoсти oт услoвий рельефа (при пoдъёме на 10 м давление пoнижается примернo на 1 мм рт.ст.).